Weather in Voskresenka

Russia / Saratov Oblast     50°59′26″N   46°27′57″E
temp.,
°C
wind,
m/s
gust,
m/s
humid.,
%
clouds,
%
prec.,
mm/h
press.,
hPa
HPBL,
m
13 may, thu
thu1301:00+13n45912 0.0 101976
04:00+12nne48949 0.0 1018145
07:00+14e4988100 0.3 1017264
10:00+21se57645 3.1 1017800
13:00+24sse685421 0.1 10171517
16:00+26sse684660 0.1 10162271
19:00+23ssw376321 0.0 1017168
22:00+19ssw11725 0.0 101811
14 may, fri
fri1401:00+18e2273100 0.0 101814
04:00+17e3377100 0.1 101941
07:00+18ese486872 0.0 1019189
10:00+23sse6846100 0.0 1019485
13:00+27sse79375 0.0 10191016
16:00+29sse79310 0.0 10191392
19:00+26se49425 0.0 1018219
22:00+21se61548100 0.0 1018236
15 may, sat
sat1501:00+19sse51544100 0.0 1019230
04:00+17sse410425 0.0 1019137
07:00+18se410485 0.0 1019182
10:00+25sse712310 0.0 1019580
13:00+29sse811277 0.0 10191403
16:00+30s79249 0.0 10182651
19:00+26se493966 0.0 1017206
22:00+21se511535 0.0 1017169
16 may, sun
sun1601:00+19se49476 0.0 1017121
04:00+17sse46475 0.0 101768
07:00+18se375332 0.0 1018143
10:00+25sse573556 0.0 1018515
13:00+30sse682725 0.0 10171776
16:00+31sse6724100 0.0 10163417
19:00+27se343989 0.0 101551
22:00+23ese444298 0.0 101544
17 may, mon
mon1701:00+22se364579 0.0 1016100
04:00+19se224943 0.0 101611
07:00+20ese365268 0.0 1016114
10:00+27ese69306 0.0 1016496
13:00+31se682083 0.0 10153201
16:00+30se672093 0.0 10153108
19:00+27se4835100 0.0 1015170
22:00+22e4733100 0.0 101584